Torna al catalogo

FENGYUN 1C DEB

AttivoPO
NORAD 32458·DEBRIS·🇨🇳 China

Lanciato May 10, 1999 da Taiyuan Satellite Launch Center

Loading…

Prossimi Passaggi (prossime 24 ore)

TLE

AggiornatoSource: Space-Track

Epoca: Sep 14, 2026, 08:52 UTC

1 32458U 99025DBW 26257.36979822  .00003788  00000-0  69659-3 0  9999
2 32458  99.0245 308.8511 0036516 243.2594 116.4868 14.65902294718236

Traccia FENGYUN 1C DEB in tempo reale con AllMySat

Download on the App Store